Regional Weather Roundup
Issued by NWS Cleveland, OH

Home | Current Version | Previous Version | Graphics & Text | Print | Product List | Glossary On
Versions: 1 2 3 4 5 6 7 8 9 10 11 12 13 14 15 16 17 18 19 20 21 22 23 24 25 26 27 28 29 30 31 32 33 34 35 36 37 38 39 40 41 42 43 44 45 46 47 48 49 50
000
ASUS41 KCLE 262312
RWRCLE
OHIO REGIONAL WEATHER ROUNDUP
NATIONAL WEATHER SERVICE WILMINGTON, OH
700 PM EDT THU APR 26 2018

NOTE: "FAIR" INDICATES FEW OR NO CLOUDS BELOW 12,000 FEET WITH NO
SIGNIFICANT WEATHER AND/OR OBSTRUCTIONS TO VISIBILITY.

OHZ001>008-015>018-024>027-034-035-043-044-270000-
   NORTHWEST OHIO

CITY           SKY/WX    TMP DP  RH WIND       PRES   REMARKS
DEFIANCE       FAIR      63  35  35 N7        29.85
FINDLAY        FAIR      64  38  38 NW3       29.85S
TOLEDO EXPRESS FAIR      63  34  33 VRB7      29.85F
TOLEDO EXEC    FAIR      63  33  32 W8        29.86S
LIMA           FAIR      62  39  42 CALM      29.85S
$$

OHZ009>014-019>023-028>033-038-089-270000-
   NORTHEAST OHIO

CITY           SKY/WX    TMP DP  RH WIND       PRES   REMARKS
CLE-HOPKINS    FAIR      53  35  50 N7        29.91S
CLE-LAKEFRONT  FAIR      47  35  63 NE6       29.89S
CUY CO. ARPT   MOSUNNY   52  37  58 NW7       29.90S
LORAIN-ELYRIA  FAIR      54  33  45 NE10      29.89R
ASHTABULA      FAIR      51  33  50 N6        29.90R
AKRON-CANTON   FAIR      61  35  37 CALM      29.87R
WOOSTER        FAIR      61  38  42 N7        29.86S
MANSFIELD      FAIR      61  37  41 W7        29.86S
YOUNGSTOWN     FAIR      60  33  36 NW5       29.86R
$$

OHZ042-051>053-060>062-070>072-077>081-270000-
  SOUTHWEST OHIO

CITY           SKY/WX    TMP DP  RH WIND       PRES   REMARKS
CINC-COVINGTON PTSUNNY   67  31  26 CALM      29.84R
CINC-LUNKEN    FAIR      65  43  44 W3        29.84S
HAMILTON       FAIR      67  36  31 NE3       29.85R
DAYTON         CLOUDY    64  38  38 CALM      29.85S
WRIGHT-PAT AFB PTSUNNY   64  39  39 NE6       29.84S
DAYTON GENERAL FAIR      66  30  26 CALM      29.84R
WILMINGTON     FAIR      68  43  40 SW8       29.84R
$$

OHZ036-037-039>041-045>050-054>059-063>069-073>076-082>088-270000-
  CENTRAL AND SOUTHEAST OHIO

CITY           SKY/WX    TMP DP  RH WIND       PRES   REMARKS
COLUMBUS       CLOUDY    65  40  39 CALM      29.84S
OSU AIRPORT    FAIR      63  42  46 W5        29.84S
BOLTON FIELD   PTSUNNY   63  45  51 SE3       29.85R
RICKENBACK AFB FAIR      63  42  46 CALM      29.84R
NEWARK         FAIR      63  42  46 S3        29.85R
MARION         FAIR      62  37  39 CALM      29.86S
LANCASTER      FAIR      63  45  51 NE3       29.85R
ZANESVILLE     FAIR      62  41  46 CALM      29.86R
NEW PHILLY     FAIR      61  38  42 NW5       29.87R
$$




USA.gov is the U.S. government's official web portal to all federal, state and local government web resources and services.